Вернуться в каталог

ARIANE 5 R/B

АктивенHEO
NORAD 42952·ROCKET BODY·🇫🇷 France

Запущен Sep 29, 2017 с Guiana Space Centre

Loading…

Ближайшие Пролёты (ближайшие 24 часа)

TLE

СвежийSource: Space-Track

Эпоха: Sep 14, 2026, 09:05 UTC

1 42952U 17059C   26257.37878411  .00002066  00000-0  56093-3 0  9995
2 42952   5.5644 189.9627 7104126  96.5415 341.3813  2.50471038 77288

Отслеживайте ARIANE 5 R/B в реальном времени с AllMySat

Download on the App Store